Date String (YYYY-MM-DD hh:mm:ss) UTC,Instrument flags,absolute air pressure of the measurement (hPa),sample flow rate (lpm),inlet stack bypass flow (lpm),air temperature of the measurement (°C),ambient temperature measured by the external sensor (°C),aerosol sample conditioner tube jacket temperature (°C),OPC LED temperature (°C),internal box temperature (°C),relative humidity of the measurement (%),span deviation,mass concentration of particles derived from Lorenz-Mie calculation of OPC scattering (μg/m³),mass concentration of particles derived from Lorenz-Mie calculation of OPC scattering (μg/m³),mass concentration of particles derived from Lorenz-Mie calculation of OPC scattering (μg/m³)
DateTimeUTC,F1_M11,P_M11,Q1_M11,Q2_M11,T1_M11,T2_M11,T3_M11,T4_M11,T5_M11,U1_M11,ZSPAN_M11,X0_M11,X2_M11,X1_M11
2023-07-29 08:00:00,SystemResetWarning,0836.1,5.00,000.00,029.5,028.4,000.0,037.9,031.1,27.8,0000.0,0009.67,0005.26,0004.42
2023-07-29 08:01:00,SystemResetWarning,0836.1,4.99,000.00,029.5,028.4,000.0,037.9,031.2,27.4,0000.0,0009.44,0005.27,0004.43
2023-07-29 08:02:00,SystemResetWarning,0836.1,5.00,000.00,029.6,027.6,000.0,037.9,031.1,27.4,0000.0,0009.39,0005.30,0004.45
2023-07-29 08:03:00,SystemResetWarning,0836.1,5.01,000.00,029.5,025.8,000.0,037.7,030.8,27.6,0000.0,0009.92,0005.32,0004.45
2023-07-29 08:04:00,SystemResetWarning,0836.1,5.01,000.00,029.4,025.2,000.0,037.7,030.6,27.6,0000.0,0009.95,0005.31,0004.44
2023-07-29 08:05:00,SystemResetWarning,0836.1,5.01,000.00,029.3,025.4,000.0,037.7,030.4,27.9,0000.0,0009.99,0005.29,0004.41
2023-07-29 08:06:00,SystemResetWarning,0836.0,5.01,000.00,029.2,025.7,000.0,037.7,030.4,28.2,0000.0,0010.26,0005.30,0004.39
2023-07-29 08:07:00,SystemResetWarning,0836.0,4.99,000.00,029.2,026.1,000.0,037.7,030.5,28.5,0000.0,0010.55,0005.32,0004.38
2023-07-29 08:08:00,SystemResetWarning,0836.0,5.00,000.00,029.2,026.5,000.0,037.7,030.6,28.5,0000.0,0010.98,0005.34,0004.36
2023-07-29 08:09:00,SystemResetWarning,0836.1,5.01,000.00,029.2,026.8,000.0,037.7,030.7,28.4,0000.0,0011.33,0005.35,0004.35
2023-07-29 08:10:00,SystemResetWarning,0836.0,5.01,000.00,029.2,027.1,000.0,037.7,030.7,28.5,0000.0,0011.27,0005.32,0004.33
2023-07-29 08:11:00,SystemResetWarning,0836.0,5.00,000.00,029.2,027.3,000.0,037.7,030.7,28.4,0000.0,0011.24,0005.29,0004.31
2023-07-29 08:12:00,SystemResetWarning,0836.0,5.00,000.00,029.2,027.5,000.0,037.7,030.8,28.1,0000.0,0011.30,0005.29,0004.31
2023-07-29 08:13:00,SystemResetWarning,0836.0,4.99,000.00,029.2,027.6,000.0,037.7,030.8,27.8,0000.0,0011.70,0005.27,0004.30
2023-07-29 08:14:00,SystemResetWarning,0836.0,4.99,000.00,029.2,027.8,000.0,037.7,030.9,27.5,0000.0,0011.34,0005.26,0004.28
2023-07-29 08:15:00,SystemResetWarning,0836.0,5.01,000.00,029.3,027.9,000.0,037.7,030.9,27.3,0000.0,0011.11,0005.24,0004.27
2023-07-29 08:16:00,SystemResetWarning,0836.1,5.01,000.00,029.3,028.0,000.0,037.7,030.9,27.2,0000.0,0011.16,0005.22,0004.28
2023-07-29 08:17:00,SystemResetWarning,0836.0,5.00,000.00,029.3,028.0,000.0,037.8,031.0,27.1,0000.0,0011.09,0005.19,0004.27
2023-07-29 08:18:00,SystemResetWarning,0836.0,4.98,000.00,029.4,028.1,000.0,037.8,031.0,27.0,0000.0,0010.94,0005.17,0004.26
2023-07-29 08:19:00,SystemResetWarning,0836.1,5.00,000.00,029.4,028.2,000.0,037.8,031.0,26.9,0000.0,0010.44,0005.16,0004.25
2023-07-29 08:20:00,SystemResetWarning,0836.1,5.00,000.00,029.4,028.2,000.0,037.8,031.1,26.7,0000.0,0010.74,0005.12,0004.24
2023-07-29 08:21:00,SystemResetWarning,0836.1,5.02,000.00,029.4,028.3,000.0,037.8,031.1,26.9,0000.0,0010.96,0005.10,0004.24
2023-07-29 08:22:00,SystemResetWarning,0836.1,5.00,000.00,029.5,028.4,000.0,037.9,031.1,26.7,0000.0,0010.85,0005.09,0004.24
2023-07-29 08:23:00,SystemResetWarning,0836.0,4.99,000.00,029.5,028.4,000.0,037.9,031.2,26.8,0000.0,0010.78,0005.07,0004.22
2023-07-29 08:24:00,SystemResetWarning,0836.0,5.00,000.00,029.5,028.5,000.0,037.9,031.2,26.6,0000.0,0010.30,0005.04,0004.21
2023-07-29 08:25:00,SystemResetWarning,0835.9,5.00,000.00,029.5,027.5,000.0,037.8,031.1,26.5,0000.0,0010.21,0004.99,0004.21
2023-07-29 08:26:00,SystemResetWarning,0835.9,5.01,000.00,029.5,025.7,000.0,037.7,030.8,26.6,0000.0,0010.19,0004.95,0004.19
2023-07-29 08:27:00,SystemResetWarning,0835.9,5.01,000.00,029.4,025.2,000.0,037.7,030.6,26.6,0000.0,0010.04,0004.94,0004.17
2023-07-29 08:28:00,SystemResetWarning,0835.8,5.00,000.00,029.3,025.4,000.0,037.7,030.4,27.3,0000.0,0010.02,0004.90,0004.15
2023-07-29 08:29:00,SystemResetWarning,0835.9,4.99,000.00,029.2,025.8,000.0,037.7,030.4,27.6,0000.0,0010.11,0004.89,0004.15
2023-07-29 08:30:00,SystemResetWarning,0835.9,4.99,000.00,029.2,026.2,000.0,037.7,030.5,27.4,0000.0,0009.94,0004.82,0004.14
2023-07-29 08:31:00,SystemResetWarning,0835.9,5.00,000.00,029.2,026.5,000.0,037.7,030.6,27.5,0000.0,0009.42,0004.79,0004.14
2023-07-29 08:32:00,SystemResetWarning,0835.9,5.01,000.00,029.2,026.9,000.0,037.7,030.7,27.9,0000.0,0008.77,0004.77,0004.13
2023-07-29 08:33:00,SystemResetWarning,0835.9,5.01,000.00,029.2,027.1,000.0,037.7,030.7,28.0,0000.0,0008.77,0004.76,0004.12
2023-07-29 08:34:00,SystemResetWarning,0835.9,5.00,000.00,029.2,027.4,000.0,037.7,030.8,27.8,0000.0,0008.66,0004.73,0004.12
2023-07-29 08:35:00,SystemResetWarning,0835.9,4.98,000.00,029.2,027.6,000.0,037.7,030.8,27.7,0000.0,0008.60,0004.72,0004.10
2023-07-29 08:36:00,SystemResetWarning,0835.9,4.99,000.00,029.3,027.7,000.0,037.7,030.9,27.5,0000.0,0008.68,0004.73,0004.09
2023-07-29 08:37:00,SystemResetWarning,0835.9,4.99,000.00,029.3,027.8,000.0,037.7,030.9,27.4,0000.0,0008.79,0004.75,0004.09
2023-07-29 08:38:00,SystemResetWarning,0835.9,5.01,000.00,029.3,028.0,000.0,037.7,030.9,27.0,0000.0,0009.23,0004.76,0004.08
2023-07-29 08:39:00,SystemResetWarning,0835.9,5.00,000.00,029.3,028.1,000.0,037.8,031.0,27.9,0000.0,0009.29,0004.78,0004.08
2023-07-29 08:40:00,SystemResetWarning,0835.9,5.00,000.00,029.4,028.2,000.0,037.8,031.0,27.7,0000.0,0009.66,0004.82,0004.08
2023-07-29 08:41:00,SystemResetWarning,0835.9,5.01,000.00,029.4,028.2,000.0,037.8,031.0,27.6,0000.0,0009.91,0004.87,0004.08
2023-07-29 08:42:00,SystemResetWarning,0835.9,4.99,000.00,029.4,028.3,000.0,037.8,031.1,27.4,0000.0,0009.95,0004.87,0004.06
2023-07-29 08:43:00,SystemResetWarning,0835.9,4.99,000.00,029.5,028.3,000.0,037.8,031.1,27.3,0000.0,0009.96,0004.86,0004.05
2023-07-29 08:44:00,SystemResetWarning,0835.9,4.99,000.00,029.5,028.4,000.0,037.9,031.1,27.0,0000.0,0010.19,0004.85,0004.03
2023-07-29 08:45:00,SystemResetWarning,0835.9,5.01,000.00,029.5,028.4,000.0,037.9,031.2,27.0,0000.0,0010.74,0004.84,0004.01
2023-07-29 08:46:00,SystemResetWarning,0835.9,5.01,000.00,029.6,028.5,000.0,037.9,031.2,27.1,0000.0,0010.90,0004.86,0004.02
2023-07-29 08:47:00,SystemResetWarning,0835.9,4.99,000.00,029.6,028.5,000.0,037.9,031.2,27.1,0000.0,0010.96,0004.83,0004.02
2023-07-29 08:48:00,SystemResetWarning,0835.8,4.98,000.00,029.6,027.4,000.0,037.9,031.2,27.7,0000.0,0010.78,0004.79,0004.02
2023-07-29 08:49:00,SystemResetWarning,0835.8,5.01,000.00,029.5,025.7,000.0,037.8,030.9,28.2,0000.0,0010.44,0004.79,0004.01
2023-07-29 08:50:00,SystemResetWarning,0835.8,5.01,000.00,029.4,025.2,000.0,037.7,030.7,28.3,0000.0,0010.38,0004.81,0004.02
2023-07-29 08:51:00,SystemResetWarning,0835.8,5.01,000.00,029.3,025.5,000.0,037.7,030.5,28.1,0000.0,0009.73,0004.76,0004.03
2023-07-29 08:52:00,SystemResetWarning,0835.8,5.00,000.00,029.3,025.9,000.0,037.7,030.6,27.9,0000.0,0009.71,0004.76,0004.03
2023-07-29 08:53:00,SystemResetWarning,0835.8,4.99,000.00,029.2,026.3,000.0,037.8,030.6,27.7,0000.0,0010.61,0004.78,0004.03
2023-07-29 08:54:00,SystemResetWarning,0835.8,4.99,000.00,029.2,026.6,000.0,037.8,030.7,27.7,0000.0,0010.80,0004.79,0004.04
2023-07-29 08:55:00,SystemResetWarning,0835.8,5.01,000.00,029.2,027.0,000.0,037.8,030.7,27.6,0000.0,0011.11,0004.81,0004.04
2023-07-29 08:56:00,SystemResetWarning,0835.8,5.01,000.00,029.3,027.2,000.0,037.8,030.8,27.5,0000.0,0010.85,0004.83,0004.05
2023-07-29 08:57:00,SystemResetWarning,0835.8,5.01,000.00,029.3,027.5,000.0,037.8,030.8,27.4,0000.0,0010.65,0004.84,0004.06
2023-07-29 08:58:00,SystemResetWarning,0835.8,4.99,000.00,029.3,027.6,000.0,037.8,030.9,27.5,0000.0,0010.97,0004.86,0004.06
2023-07-29 08:59:00,SystemResetWarning,0835.9,5.00,000.00,029.3,027.8,000.0,037.8,030.9,27.6,0000.0,0010.93,0004.87,0004.06
